When you browse on this site, cookies collect data to enhance your experience and personalize the content and advertising you see.
Visit our Privacy Policy to learn more. By continuing to use the site, you agree to this use of cookies and data.
  • In Czech Republic
  • List of Countries
  • For 7 days
  • Water Temperature
  • Satellite Maps
  • Weather Map
  • Weather Widgets
  • user-avatar
    Login

    Hourly Weather Sololá

    Today, 20 July, Saturday

    Time Temperature Precipitation Wind Pressure Humidity
    00:00 +13°C° 0 mm 2 mps 593 mmHg 90%
    01:00 +13°C° 0 mm 2 mps 593 mmHg 88%
    02:00 +13°C° 0 mm 2 mps 592 mmHg 86%
    03:00 +13°C° 0 mm 2 mps 592 mmHg 84%
    04:00 +13°C° 0 mm 2 mps 592 mmHg 83%
    05:00 +13°C° 0 mm 2 mps 592 mmHg 81%
    06:00 +13°C° 0 mm 2 mps 592 mmHg 79%
    07:00 +15°C° 0 mm 1 mps 593 mmHg 74%
    08:00 +18°C° 0 mm 1 mps 595 mmHg 69%
    09:00 +21°C° 0 mm 1 mps 596 mmHg 64%
    10:00 +21°C° 0 mm 1 mps 596 mmHg 61%
    11:00 +21°C° 0 mm 2 mps 596 mmHg 58%
    12:00 +23°C° 0 mm 2 mps 597 mmHg 55%
    13:00 +23°C° 0.4 mm 2 mps 596 mmHg 59%
    14:00 +23°C° 0.4 mm 2 mps 595 mmHg 62%
    15:00 +21°C° 0.4 mm 2 mps 595 mmHg 65%
    16:00 +21°C° 0.6 mm 1 mps 594 mmHg 73%
    17:00 +20°C° 0.6 mm 1 mps 594 mmHg 81%
    18:00 +18°C° 0.6 mm 1 mps 593 mmHg 89%
    19:00 +16°C° 0.2 mm 1 mps 593 mmHg 90%
    20:00 +15°C° 0.2 mm 1 mps 593 mmHg 90%
    21:00 +14°C° 0.2 mm 2 mps 593 mmHg 90%
    22:00 +14°C° 0.1 mm 2 mps 593 mmHg 88%
    23:00 +14°C° 0.1 mm 2 mps 593 mmHg 87%

    Tomorrow, 21 July, Sunday

    Time Temperature Precipitation Wind Pressure Humidity
    00:00 +14°C° 0.1 mm 2 mps 593 mmHg 85%
    01:00 +14°C° 0.2 mm 2 mps 593 mmHg 86%
    02:00 +14°C° 0.2 mm 2 mps 593 mmHg 88%
    03:00 +14°C° 0.2 mm 2 mps 592 mmHg 89%
    04:00 +14°C° 0 mm 2 mps 592 mmHg 87%
    05:00 +14°C° 0 mm 2 mps 593 mmHg 86%
    06:00 +14°C° 0 mm 2 mps 593 mmHg 84%
    07:00 +18°C° 0 mm 1 mps 594 mmHg 76%
    08:00 +20°C° 0 mm 1 mps 595 mmHg 67%
    09:00 +22°C° 0 mm 1 mps 597 mmHg 59%
    10:00 +22°C° 0.8 mm 1 mps 596 mmHg 64%
    11:00 +22°C° 0.8 mm 1 mps 596 mmHg 70%
    12:00 +21°C° 0.8 mm 2 mps 596 mmHg 75%
    13:00 +21°C° 1.8 mm 1 mps 595 mmHg 79%
    14:00 +20°C° 1.8 mm 1 mps 594 mmHg 82%
    15:00 +19°C° 1.8 mm 1 mps 594 mmHg 85%
    16:00 +18°C° 1.8 mm 1 mps 593 mmHg 88%
    17:00 +16°C° 1.8 mm 1 mps 593 mmHg 90%
    18:00 +15°C° 1.8 mm 2 mps 593 mmHg 92%
    19:00 +15°C° 0.3 mm 2 mps 593 mmHg 92%
    20:00 +14°C° 0.3 mm 2 mps 593 mmHg 91%
    21:00 +14°C° 0.3 mm 2 mps 593 mmHg 91%
    22:00 +14°C° 0 mm 2 mps 593 mmHg 89%
    23:00 +14°C° 0 mm 2 mps 593 mmHg 87%

    Day after tomorrow, 22 July, Monday

    Time Temperature Precipitation Wind Pressure Humidity
    00:00 +14°C° 0 mm 2 mps 593 mmHg 85%
    01:00 +14°C° 0 mm 1 mps 593 mmHg 84%
    02:00 +13°C° 0 mm 1 mps 593 mmHg 83%
    03:00 +13°C° 0 mm 1 mps 592 mmHg 81%
    04:00 +13°C° 0 mm 1 mps 592 mmHg 82%
    05:00 +13°C° 0 mm 1 mps 593 mmHg 82%
    06:00 +13°C° 0 mm 1 mps 593 mmHg 82%
    07:00 +15°C° 0 mm 1 mps 594 mmHg 75%
    08:00 +19°C° 0 mm 1 mps 595 mmHg 69%
    09:00 +21°C° 0 mm 1 mps 597 mmHg 62%
    10:00 +22°C° 0 mm 1 mps 597 mmHg 59%
    11:00 +23°C° 0 mm 2 mps 597 mmHg 56%
    12:00 +24°C° 0 mm 2 mps 597 mmHg 53%
    13:00 +23°C° 0.6 mm 2 mps 597 mmHg 57%
    14:00 +21°C° 0.6 mm 2 mps 596 mmHg 61%
    15:00 +21°C° 0.6 mm 2 mps 595 mmHg 65%
    16:00 +21°C° 0.5 mm 1 mps 595 mmHg 72%
    17:00 +19°C° 0.5 mm 1 mps 594 mmHg 78%
    18:00 +18°C° 0.5 mm 1 mps 594 mmHg 84%
    19:00 +16°C° 0.2 mm 1 mps 594 mmHg 85%
    20:00 +15°C° 0.2 mm 1 mps 594 mmHg 87%
    21:00 +14°C° 0.2 mm 1 mps 594 mmHg 88%
    22:00 +13°C° 0 mm 2 mps 594 mmHg 88%
    23:00 +13°C° 0 mm 2 mps 594 mmHg 87%

    23 July, Tuesday

    Time Temperature Precipitation Wind Pressure Humidity
    00:00 +13°C° 0 mm 2 mps 593 mmHg 87%
    01:00 +13°C° 0 mm 2 mps 593 mmHg 87%
    02:00 +13°C° 0 mm 1 mps 593 mmHg 87%
    03:00 +13°C° 0 mm 1 mps 593 mmHg 87%
    04:00 +13°C° 0 mm 1 mps 593 mmHg 86%
    05:00 +13°C° 0 mm 1 mps 593 mmHg 85%
    06:00 +13°C° 0 mm 1 mps 593 mmHg 83%
    07:00 +15°C° 0 mm 1 mps 594 mmHg 74%
    08:00 +19°C° 0 mm 1 mps 596 mmHg 65%
    09:00 +22°C° 0 mm 1 mps 598 mmHg 56%
    10:00 +22°C° 0 mm 1 mps 598 mmHg 55%
    11:00 +23°C° 0 mm 2 mps 597 mmHg 55%
    12:00 +23°C° 0 mm 2 mps 597 mmHg 54%
    13:00 +23°C° 0.5 mm 2 mps 597 mmHg 58%
    14:00 +21°C° 0.5 mm 2 mps 596 mmHg 63%
    15:00 +20°C° 0.5 mm 2 mps 595 mmHg 67%
    16:00 +20°C° 0.3 mm 1 mps 595 mmHg 75%
    17:00 +19°C° 0.3 mm 1 mps 594 mmHg 82%
    18:00 +18°C° 0.3 mm 1 mps 594 mmHg 89%
    19:00 +16°C° 0.1 mm 1 mps 594 mmHg 90%
    20:00 +15°C° 0.1 mm 1 mps 594 mmHg 91%
    21:00 +13°C° 0.1 mm 2 mps 594 mmHg 92%
    22:00 +13°C° 0 mm 2 mps 594 mmHg 91%
    23:00 +13°C° 0 mm 2 mps 594 mmHg 90%

    24 July, Wednesday

    Time Temperature Precipitation Wind Pressure Humidity
    00:00 +13°C° 0 mm 2 mps 594 mmHg 90%
    01:00 +13°C° 0 mm 2 mps 593 mmHg 88%
    02:00 +12°C° 0 mm 2 mps 593 mmHg 86%
    03:00 +12°C° 0 mm 2 mps 592 mmHg 85%
    04:00 +12°C° 0 mm 2 mps 592 mmHg 84%
    05:00 +12°C° 0 mm 2 mps 593 mmHg 84%
    06:00 +12°C° 0 mm 2 mps 593 mmHg 83%
    07:00 +15°C° 0 mm 2 mps 594 mmHg 74%
    08:00 +19°C° 0 mm 1 mps 596 mmHg 64%
    09:00 +21°C° 0 mm 1 mps 597 mmHg 55%
    10:00 +22°C° 0 mm 1 mps 597 mmHg 52%
    11:00 +23°C° 0 mm 2 mps 597 mmHg 49%
    12:00 +24°C° 0 mm 2 mps 597 mmHg 47%
    13:00 +24°C° 0.3 mm 2 mps 597 mmHg 53%
    14:00 +23°C° 0.3 mm 2 mps 596 mmHg 60%
    15:00 +21°C° 0.3 mm 2 mps 595 mmHg 66%
    16:00 +20°C° 0.3 mm 2 mps 595 mmHg 73%
    17:00 +20°C° 0.3 mm 1 mps 594 mmHg 81%
    18:00 +18°C° 0.3 mm 1 mps 594 mmHg 88%
    19:00 +16°C° 0.3 mm 1 mps 594 mmHg 90%
    20:00 +15°C° 0.3 mm 1 mps 594 mmHg 92%
    21:00 +14°C° 0.3 mm 1 mps 594 mmHg 95%
    22:00 +14°C° 0 mm 2 mps 593 mmHg 94%
    23:00 +13°C° 0 mm 2 mps 593 mmHg 94%

    25 July, Thursday

    Time Temperature Precipitation Wind Pressure Humidity
    00:00 +13°C° 0 mm 2 mps 593 mmHg 94%
    01:00 +13°C° 0 mm 2 mps 592 mmHg 92%
    02:00 +12°C° 0 mm 2 mps 592 mmHg 91%
    03:00 +12°C° 0 mm 2 mps 592 mmHg 89%
    04:00 +12°C° 0 mm 2 mps 592 mmHg 87%
    05:00 +12°C° 0 mm 2 mps 592 mmHg 85%
    06:00 +12°C° 0 mm 2 mps 592 mmHg 83%
    07:00 +15°C° 0 mm 1 mps 594 mmHg 76%
    08:00 +18°C° 0 mm 1 mps 595 mmHg 69%
    09:00 +20°C° 0 mm 1 mps 597 mmHg 62%
    10:00 +21°C° 0.4 mm 1 mps 596 mmHg 67%
    11:00 +21°C° 0.4 mm 1 mps 596 mmHg 72%
    12:00 +20°C° 0.4 mm 2 mps 596 mmHg 76%
    13:00 +20°C° 1.7 mm 1 mps 595 mmHg 81%
    14:00 +20°C° 1.7 mm 1 mps 594 mmHg 85%
    15:00 +19°C° 1.7 mm 1 mps 594 mmHg 90%
    16:00 +18°C° 2.1 mm 1 mps 593 mmHg 92%
    17:00 +16°C° 2.1 mm 1 mps 593 mmHg 94%
    18:00 +15°C° 2.1 mm 1 mps 593 mmHg 96%
    19:00 +14°C° 0.6 mm 1 mps 593 mmHg 95%
    20:00 +14°C° 0.6 mm 1 mps 593 mmHg 94%
    21:00 +14°C° 0.6 mm 2 mps 594 mmHg 94%
    22:00 +13°C° 0 mm 2 mps 594 mmHg 93%
    23:00 +13°C° 0 mm 2 mps 594 mmHg 92%
    Show more